K9APR Weather Reports


time (UTC)temp
F
wind
direction
speed
knots
gust
knots
rain 1hr
in
rain 24hr
in
rain mn
in
humidity
%
barometer
mb
20260905162427 67 0 0.0 0.0 0.00 0.35 0.14 91 1013.9
20260905161523 67 0 0.0 0.0 0.00 0.35 0.14 91 1014.1
20260905160623 67 0 0.0 0.0 0.00 0.35 0.14 91 1014.0
20260905155723 67 0 0.0 0.0 0.00 0.35 0.14 91 1014.1
20260905154822 67 0 0.0 0.0 0.00 0.35 0.14 91 1013.7
20260905153922 67 0 0.0 0.0 0.00 0.35 0.14 91 1014.0
20260905153023 67 0 0.0 0.0 0.00 0.35 0.14 91 1013.9
20260905152123 67 0 0.0 0.0 0.00 0.35 0.14 91 1014.0
20260905151224 67 0 0.0 0.0 0.00 0.35 0.14 91 1013.8
20260905150326 67 0 0.0 0.0 0.00 0.35 0.14 91 1013.6
20260905145423 67 0 0.0 0.0 0.00 0.35 0.14 91 1013.6
20260905144524 67 0 0.0 0.0 0.00 0.35 0.14 91 1013.4
20260905144210 67 0 0.0 0.0 0.00 0.35 0.14 91 1013.6
20260905143824 67 0 0.0 0.0 0.00 0.35 0.14 91 1013.6
20260905143624 67 0 0.0 0.0 0.00 0.35 0.14 91 1013.6
20260905142724 67 0 0.0 0.0 0.00 0.35 0.14 91 1013.8
20260905141824 67 0 0.0 0.0 0.00 0.35 0.14 91 1013.7
20260905140923 67 0 0.0 0.0 0.00 0.35 0.14 91 1013.9
20260905140023 67 0 0.0 0.0 0.00 0.35 0.14 91 1013.9
20260905135123 67 0 0.0 0.0 0.00 0.35 0.14 91 1013.7
20260905134223 67 0 0.0 0.0 0.00 0.35 0.14 91 1014.0
20260905133322 67 0 0.0 0.0 0.00 0.35 0.14 91 1014.0
20260905132428 67 0 0.0 0.0 0.00 0.35 0.14 91 1014.2
20260905131524 67 0 0.0 0.0 0.00 0.35 0.14 91 1014.3
20260905130623 67 0 0.0 0.0 0.00 0.35 0.14 91 1014.4
20260905125723 67 0 0.0 0.0 0.00 0.35 0.14 91 1014.6
20260905125029 67 0 0.0 0.0 0.00 0.35 0.14 91 1014.6
20260905124824 67 0 0.0 0.0 0.00 0.35 0.14 91 1014.6
20260905123923 67 0 0.0 0.0 0.00 0.35 0.14 91 1014.6
20260905123024 67 0 0.0 0.0 0.00 0.35 0.14 91 1014.6
20260905122126 67 0 0.0 0.0 0.00 0.35 0.14 91 1014.3
20260905121307 67 0 0.0 0.0 0.00 0.35 0.14 91 1014.2
20260905121224 67 0 0.0 0.0 0.00 0.35 0.14 91 1014.2
20260905120322 67 0 0.0 0.0 0.00 0.35 0.14 91 1014.0
20260905115422 67 0 0.0 0.0 0.00 0.35 0.14 91 1013.9
20260905114620 67 0 0.0 0.0 0.00 0.35 0.14 91 1013.8
20260905114522 67 0 0.0 0.0 0.00 0.35 0.14 91 1013.8
20260905113622 67 297 0.0 0.0 0.00 0.35 0.14 91 1014.2
20260905112723 67 297 0.0 0.0 0.00 0.35 0.14 91 1014.5
20260905111824 67 297 0.0 0.0 0.00 0.35 0.14 91 1014.4
20260905110922 67 297 0.0 0.0 0.00 0.35 0.14 91 1014.3
20260905110024 67 297 0.0 0.0 0.01 0.35 0.14 91 1014.8
20260905105125 67 257 0.0 0.9 0.06 0.35 0.14 91 1015.3
20260905104223 67 302 0.0 1.7 0.09 0.35 0.14 91 1014.9
20260905103442 67 114 0.0 0.0 0.14 0.35 0.14 91 1014.6
20260905103323 67 114 0.0 0.0 0.14 0.35 0.14 91 1014.6
20260905102423 67 113 0.0 0.0 0.14 0.35 0.14 91 1015.3
20260905101523 67 113 0.0 0.0 0.14 0.35 0.14 91 1014.8
20260905100624 68 137 0.0 0.0 0.13 0.34 0.13 90 1014.7
20260905095808 68 147 0.0 0.9 0.13 0.34 0.13 90 1014.7
20260905095724 68 147 0.0 0.9 0.13 0.34 0.13 90 1014.7
20260905094823 68 199 0.0 0.9 0.06 0.27 0.06 89 1015.0
20260905093922 69 39 0.0 2.6 0.00 0.21 0.00 88 1015.0
20260905093023 69 343 0.9 2.6 0.00 0.21 0.00 89 1014.9
20260905092123 69 165 0.9 1.7 0.00 0.21 0.00 90 1014.8
20260905091256 70 285 1.7 4.3 0.00 0.21 0.00 91 1014.8
20260905091224 70 285 1.7 4.3 0.00 0.21 0.00 91 1014.8
20260905090323 71 124 0.0 0.9 0.00 0.21 0.00 92 1013.8
20260905085423 71 129 0.0 0.0 0.00 0.21 0.00 92 1013.3
20260905084523 71 129 0.0 0.0 0.00 0.21 0.00 92 1013.5
20260905083622 71 129 0.0 0.0 0.00 0.21 0.00 92 1013.2
20260905082724 71 129 0.0 0.0 0.00 0.21 0.00 92 1013.1
20260905081825 71 129 0.0 0.0 0.00 0.21 0.00 92 1012.9
20260905080923 71 129 0.0 0.0 0.00 0.21 0.00 92 1013.0
20260905080022 71 129 0.0 0.0 0.00 0.21 0.00 92 1012.9
20260905075158 71 129 0.0 0.0 0.00 0.21 0.00 92 1012.8
20260905075125 71 129 0.0 0.0 0.00 0.21 0.00 92 1012.8
20260905074255 72 129 0.0 0.0 0.00 0.21 0.00 92 1012.8
20260905074223 72 129 0.0 0.0 0.00 0.21 0.00 92 1012.8
20260905073324 72 129 0.0 0.0 0.00 0.21 0.00 92 1012.6
20260905072423 72 129 0.0 0.0 0.00 0.21 0.00 93 1012.3
20260905071528 72 129 0.0 0.0 0.00 0.21 0.00 92 1011.9
20260905070623 72 129 0.0 0.0 0.00 0.21 0.00 92 1011.8
20260905065724 72 129 0.0 0.0 0.00 0.21 0.00 92 1011.8
20260905064822 72 129 0.0 0.0 0.00 0.21 0.00 92 1011.8
20260905063924 71 129 0.0 0.0 0.00 0.21 0.00 92 1012.1
20260905063023 72 129 0.0 0.0 0.00 0.21 0.00 92 1012.3
20260905062123 72 129 0.0 0.0 0.00 0.21 0.00 92 1012.5
20260905061223 72 129 0.0 0.0 0.00 0.21 0.00 92 1012.8
20260905060324 72 129 0.0 0.0 0.00 0.21 0.00 92 1012.8
20260905055422 72 129 0.0 0.0 0.00 0.21 0.00 92 1012.9
20260905054522 72 129 0.0 0.0 0.00 0.21 0.00 92 1013.0
20260905053623 72 129 0.0 0.0 0.00 0.21 0.00 92 1013.1
20260905052723 72 129 0.0 0.0 0.00 0.21 0.00 92 1013.2
20260905051822 72 129 0.0 0.0 0.00 0.21 0.00 92 1013.3
20260905050923 72 129 0.0 0.0 0.00 0.21 0.00 92 1013.3
20260905050023 72 129 0.0 0.0 0.00 0.21 0.00 92 1013.5
20260905045123 72 129 0.0 0.0 0.00 0.21 0.00 92 1013.5
20260905044224 72 129 0.0 0.0 0.00 0.21 0.00 91 1013.4
20260905043323 72 129 0.0 0.0 0.00 0.21 0.00 91 1013.5
20260905042423 72 129 0.0 0.0 0.00 0.21 0.00 91 1013.5
20260905041523 72 129 0.0 0.0 0.00 0.21 0.00 91 1013.6
20260905040622 72 129 0.0 0.0 0.00 0.21 0.00 91 1013.6
20260905035722 72 129 0.0 0.0 0.00 0.21 0.21 91 1013.5
20260905035242 72 129 0.0 0.0 0.00 0.21 0.21 91 1013.6
20260905035126 73 129 0.0 0.0 0.00 0.21 0.21 91 1013.6
20260905034822 73 129 0.0 0.0 0.00 0.21 0.21 91 1013.6
20260905033923 72 129 0.0 0.0 0.00 0.21 0.21 91 1013.6
20260905033025 72 129 0.0 0.0 0.00 0.21 0.21 91 1013.6
20260905032123 73 129 0.0 0.0 0.00 0.21 0.21 91 1013.6
20260905031222 73 129 0.0 0.0 0.00 0.21 0.21 91 1013.6
20260905030703 73 129 0.0 0.0 0.00 0.21 0.21 91 1013.5
20260905030430 73 129 0.0 0.0 0.00 0.21 0.21 91 1013.6
20260905030322 73 129 0.0 0.0 0.00 0.21 0.21 91 1013.6
20260905025422 73 129 0.0 0.0 0.00 0.21 0.21 91 1013.5
20260905024522 73 129 0.0 0.0 0.00 0.21 0.21 91 1013.5
20260905023622 73 129 0.0 0.0 0.00 0.21 0.21 91 1013.5
20260905022156 73 129 0.0 0.0 0.00 0.21 0.21 90 1013.6
20260905021823 73 129 0.0 0.0 0.00 0.21 0.21 90 1013.6
20260905020024 73 129 0.0 0.0 0.00 0.21 0.21 90 1013.4
20260905015123 73 129 0.0 0.0 0.00 0.21 0.21 90 1013.4
20260905014223 74 129 0.0 0.0 0.00 0.21 0.21 89 1013.3
20260905013323 74 129 0.0 0.0 0.00 0.21 0.21 89 1013.4
20260905012423 74 129 0.0 0.0 0.00 0.21 0.21 89 1013.3
20260905011523 75 129 0.0 0.0 0.00 0.21 0.21 89 1013.2
20260905010622 75 129 0.0 0.0 0.00 0.21 0.21 88 1013.3
20260905005753 75 129 0.0 0.0 0.00 0.21 0.21 88 1013.0
20260905005722 75 129 0.0 0.0 0.00 0.21 0.21 88 1013.0
20260905004822 75 129 0.0 0.0 0.00 0.21 0.21 87 1012.9
20260905004238 76 129 0.0 0.0 0.00 0.21 0.21 87 1012.8
20260905003921 76 129 0.0 0.0 0.00 0.21 0.21 87 1012.8
20260905003024 76 129 0.0 0.0 0.00 0.21 0.21 86 1012.8
20260905002124 77 129 0.0 0.0 0.00 0.21 0.21 85 1012.7
20260905001345 77 129 0.0 0.0 0.00 0.21 0.21 85 1012.7
20260905001255 77 129 0.0 0.0 0.00 0.21 0.21 85 1012.7
20260905001222 77 129 0.0 0.0 0.00 0.21 0.21 85 1012.7
20260905000325 78 129 0.0 0.0 0.00 0.21 0.21 85 1012.8
20260904235424 78 129 0.0 0.0 0.00 0.21 0.21 85 1012.8
20260904234523 79 129 0.0 0.0 0.00 0.21 0.21 84 1012.8
20260904233706 79 129 0.0 0.0 0.00 0.21 0.21 84 1013.1
20260904233623 79 129 0.0 0.0 0.00 0.21 0.21 84 1013.1
20260904232723 80 129 0.0 0.0 0.00 0.21 0.21 83 1013.1
20260904231823 80 129 0.0 0.9 0.00 0.21 0.21 83 1013.2
20260904230922 80 129 0.0 0.0 0.00 0.21 0.21 82 1013.3
20260904225200 81 129 0.0 0.0 0.00 0.21 0.21 81 1013.2
20260904225124 81 129 0.0 0.0 0.00 0.21 0.21 81 1013.2
20260904224223 81 129 0.0 0.9 0.00 0.21 0.21 80 1013.3
20260904222457 82 129 0.0 0.0 0.00 0.21 0.21 79 1013.3
20260904222422 82 129 0.0 0.0 0.00 0.21 0.21 79 1013.3
20260904221522 83 134 0.0 0.9 0.00 0.21 0.21 79 1013.4
20260904220624 83 154 0.0 0.9 0.00 0.21 0.21 77 1013.4
20260904215722 83 140 0.0 0.9 0.00 0.21 0.21 81 1013.3
20260904214823 82 129 0.0 0.9 0.00 0.21 0.21 82 1013.1
20260904213922 81 139 0.0 0.0 0.00 0.21 0.21 82 1013.0
20260904213023 80 121 0.9 2.6 0.00 0.21 0.21 84 1012.8
20260904211223 78 124 0.0 0.9 0.01 0.21 0.21 86 1013.3
20260904204522 79 156 0.0 0.0 0.05 0.21 0.21 89 1014.1
20260904203623 77 175 0.0 0.0 0.05 0.21 0.21 88 1013.9
20260904202723 77 78 0.0 0.0 0.05 0.21 0.21 86 1013.9
20260904201937 78 78 0.0 0.9 0.05 0.21 0.21 84 1014.0
20260904201824 78 78 0.0 0.9 0.05 0.21 0.21 84 1014.0
20260904200923 79 176 0.0 0.0 0.03 0.19 0.19 83 1014.3
20260904200023 81 171 0.9 0.9 0.00 0.16 0.16 82 1013.9
20260904195123 83 280 0.0 0.9 0.12 0.16 0.16 85 1013.6
20260904194222 83 41 0.0 0.0 0.16 0.16 0.16 88 1013.4
20260904193322 82 53 0.0 0.0 0.16 0.16 0.16 89 1013.4
20260904192424 81 53 0.0 0.0 0.16 0.16 0.16 89 1013.6
20260904191522 79 53 0.0 0.0 0.16 0.16 0.16 87 1013.6
20260904190622 79 53 0.0 0.9 0.16 0.16 0.16 85 1013.9
20260904185723 82 60 0.0 0.0 0.16 0.16 0.16 77 1013.9
20260904184823 90 326 2.6 2.6 0.00 0.00 0.00 66 1014.0
20260904183922 91 310 1.7 2.6 0.00 0.00 0.00 64 1013.9
20260904183023 90 312 0.9 1.7 0.00 0.00 0.00 68 1013.9
20260904182123 90 320 0.0 1.7 0.00 0.00 0.00 69 1014.1
20260904181223 91 311 1.7 2.6 0.00 0.00 0.00 63 1014.2
20260904180322 92 301 0.9 1.7 0.00 0.00 0.00 62 1014.4
20260904175422 92 314 2.6 2.6 0.00 0.00 0.00 62 1014.8
20260904174522 91 302 0.9 2.6 0.00 0.00 0.00 64 1014.9
20260904173623 92 305 1.7 2.6 0.00 0.00 0.00 63 1015.0
20260904172722 92 313 0.9 1.7 0.00 0.00 0.00 66 1015.0
20260904171037 91 309 0.9 2.6 0.00 0.00 0.00 67 1015.2
20260904170924 91 309 0.9 2.6 0.00 0.00 0.00 67 1015.2
20260904170022 91 315 0.9 1.7 0.00 0.00 0.00 67 1015.3
20260904165123 91 310 0.9 2.6 0.00 0.00 0.00 67 1015.4
20260904164222 90 312 0.9 2.6 0.00 0.00 0.00 69 1015.4